Regional Weather Roundup
Issued by NWS

Home | Current Version | Previous Version | Text Only | Print | Product List | Glossary Off
Versions: 1 2 3 4 5 6 7 8 9 10 11 12 13 14 15 16 17 18 19 20 21 22 23 24 25 26 27

000
ASUS45 KCYS 051910
RWRWY

WYOMING REGIONAL WEATHER ROUNDUP
NATIONAL WEATHER SERVICE CHEYENNE WY
1200 PM MST MON DEC 05 2016

NOTE:  "FAIR" INDICATES FEW OR NO CLOUDS BELOW 12,000 FEET
WITH NO SIGNIFICANT WEATHER AND/OR OBSTRUCTIONS TO VISIBILITY.

WYZ001-052000-
YELLOWSTONE NATIONAL PARK

CITY           SKY/WX    TMP DP  RH WIND       PRES   REMARKS
LK YELLOWSTONE   N/A      7  -3  64 VRB7      29.78R WCI  -5
W YELLOWSTONE  NOT AVBL

$$
WYZ002>013-054>058-071-098>099-052000-
NORTHERN WYOMING

CITY           SKY/WX    TMP DP  RH WIND       PRES   REMARKS
JACKSON        CLOUDY    14  -2  48 W9G24     29.87R WCI   2
CODY           FAIR      19  11  70 N10       29.85R WCI   7
GREYBULL       CLOUDY    26   7  44 NW24G30   29.86R WCI  11
WORLAND        FAIR      25  13  60 N20G29    29.85R WCI  11
SHERIDAN       LGT SNOW  20  15  81 N18       29.85R WCI   5
BUFFALO        FAIR      19  12  74 N28G37    29.76R BLWGSNOWWCI   1
GILLETTE       FLURRIES  20  14  77 NW23      29.76S WCI   3
HULETT         LGT SNOW  21  16  79 NW16G24   29.75S WCI   7
NEWCASTLE      FLURRIES  21  14  73 NW25G38   29.71R WCI   4

$$
WYZ014>020-022>026-101>103-052000-
CENTRAL WYOMING

CITY           SKY/WX    TMP DP  RH WIND       PRES   REMARKS
BIG PINEY      FAIR      17  -5  37 NW20      29.86S WCI   1
PINEDALE       FAIR      14  -2  48 NW13      29.85R WCI   0
DUBOIS         FAIR      12  -4  48 NW18G28   29.76S WCI  -5
LANDER         FAIR      25  11  55 S6        29.79S WCI  18
RIVERTON       FAIR      26  -7  23 NW25G33   29.79S WCI  11
CASPER         HVY SNOW  18  14  84 N12       29.78R VSB 1/4 WCI   5
DOUGLAS        LGT SNOW  21  16  81 NW20      29.76R WCI   6

$$
WYZ021-027>030-104>119-052000-
SOUTHERN WYOMING

CITY           SKY/WX    TMP DP  RH WIND       PRES   REMARKS
EVANSTON       FAIR      19  -6  33 W16       29.91F WCI   4
FORT BRIDGER   FAIR      21   0  39 W12       29.94F WCI   9
ROCK SPRINGS   FAIR      18   3  52 W24G31    29.87F WCI   0
DIXON          CLOUDY    23   1  38 W16       29.89S WCI  10
RAWLINS        FAIR      21  -5  31 W36G48    29.77R WCI   1
SARATOGA       CLOUDY    21   3  45 W21G30    29.81R WCI   6
LARAMIE        PTSUNNY   23   0  36 W28G45    29.69F WCI   6
CHEYENNE       FAIR      31   6  35 NW29G45   29.69R WCI  16
TORRINGTON     LGT SNOW  28  22  78 N18G31    29.70R WCI  15
PINE BLUFFS    FAIR      37   7  28 W40G54    29.66R WCI  23

$$




USA.gov is the U.S. government's official web portal to all federal, state and local government web resources and services.